GW1769 Weather Reports


time (UTC)temp
F
wind
direction
speed
knots
gust
knots
rain 1hr
in
rain 24hr
in
rain mn
in
humidity
%
barometer
mb
20260905165119 70 179 0.0 0.0 0.00 0.00 0.00 80 1008.7
20260905164614 70 159 0.9 0.9 0.00 0.00 0.00 78 1008.7
20260905164113 71 178 0.9 0.9 0.00 0.00 0.00 76 1008.8
20260905163609 71 197 0.9 0.9 0.00 0.00 0.00 74 1008.7
20260905163106 71 188 0.0 0.0 0.00 0.00 0.00 75 1008.5
20260905162602 72 170 0.0 0.0 0.00 0.00 0.00 74 1008.8
20260905162101 74 187 0.0 0.9 0.00 0.00 0.00 72 1008.5
20260905161600 72 162 0.0 0.0 0.00 0.00 0.00 74 1008.5
20260905161058 70 174 0.0 0.9 0.00 0.00 0.00 72 1008.6
20260905160557 71 186 0.0 0.0 0.00 0.00 0.00 76 1008.6
20260905160057 73 189 0.0 0.0 0.00 0.00 0.00 69 1008.6
20260905155552 70 185 0.0 0.9 0.00 0.00 0.00 70 1008.8
20260905155050 68 166 0.0 0.9 0.00 0.00 0.00 77 1008.6
20260905154545 70 240 2.6 2.6 0.00 0.00 0.00 77 1008.8
20260905154041 70 218 1.7 1.7 0.00 0.00 0.00 76 1008.8
20260905153537 73 181 0.0 0.9 0.00 0.00 0.00 75 1008.8
20260905153037 74 204 0.9 0.9 0.00 0.00 0.00 75 1008.8
20260905152531 72 175 0.0 0.0 0.00 0.00 0.00 78 1008.9
20260905152027 71 209 0.9 0.9 0.00 0.00 0.00 78 1008.9
20260905151522 73 224 0.9 1.7 0.00 0.00 0.00 75 1009.1
20260905151017 72 179 0.0 0.0 0.00 0.00 0.00 72 1009.0
20260905150512 70 185 0.0 0.0 0.00 0.00 0.00 77 1009.1
20260905150010 71 211 0.9 0.9 0.00 0.00 0.00 75 1009.2
20260905145509 73 200 0.0 0.9 0.00 0.00 0.00 74 1009.1
20260905145003 71 154 0.0 0.0 0.00 0.00 0.00 72 1008.7
20260905144458 72 198 0.9 1.7 0.00 0.00 0.00 72 1008.7
20260905143956 71 211 0.9 0.9 0.00 0.00 0.00 73 1008.8
20260905143456 70 158 0.9 1.7 0.00 0.00 0.00 78 1008.8
20260905142951 70 197 0.0 0.0 0.00 0.00 0.00 79 1009.0
20260905142450 70 181 0.0 0.9 0.00 0.00 0.00 76 1009.1
20260905141945 70 164 0.9 0.9 0.00 0.00 0.00 78 1009.0
20260905141440 69 153 0.9 0.9 0.00 0.00 0.00 81 1009.0
20260905140936 69 201 0.0 0.9 0.00 0.00 0.00 80 1009.2
20260905140431 68 200 0.0 0.9 0.00 0.00 0.00 81 1009.1
20260905135930 67 182 0.0 0.0 0.00 0.00 0.00 82 1009.0
20260905135426 67 159 0.0 0.9 0.00 0.00 0.00 83 1009.2
20260905134921 66 202 0.0 0.9 0.00 0.00 0.00 82 1009.3
20260905134420 67 211 0.9 0.9 0.00 0.00 0.00 81 1009.3
20260905133914 69 176 0.9 1.7 0.00 0.00 0.00 81 1009.0
20260905133409 69 162 0.9 1.7 0.00 0.00 0.00 80 1009.1
20260905132909 68 166 0.9 0.9 0.00 0.00 0.00 83 1008.9
20260905132404 67 227 0.9 1.7 0.00 0.00 0.00 85 1009.1
20260905131858 67 203 1.7 2.6 0.00 0.00 0.00 85 1008.9
20260905131354 66 175 0.9 0.9 0.00 0.00 0.00 88 1009.2
20260905130849 66 172 0.0 0.0 0.00 0.00 0.00 87 1009.0
20260905130348 66 182 0.9 1.7 0.00 0.00 0.00 87 1009.2
20260905125843 65 177 0.9 0.9 0.00 0.00 0.00 87 1009.0
20260905125338 65 166 0.0 0.0 0.00 0.00 0.00 88 1009.0
20260905124834 64 176 0.0 0.0 0.00 0.00 0.00 90 1009.1
20260905124331 64 195 0.0 0.0 0.00 0.00 0.00 92 1008.9
20260905123830 64 197 0.0 0.0 0.00 0.00 0.00 94 1008.9
20260905123327 63 189 0.0 0.0 0.00 0.00 0.00 94 1009.0
20260905122827 63 203 0.0 0.0 0.00 0.00 0.00 94 1008.9
20260905122326 63 179 0.0 0.0 0.00 0.00 0.00 95 1009.0
20260905121821 63 200 0.0 0.0 0.00 0.00 0.00 95 1009.0
20260905121318 63 183 0.0 0.0 0.00 0.00 0.00 95 1009.2
20260905120816 62 217 0.0 0.0 0.00 0.00 0.00 96 1009.0
20260905120311 62 277 0.0 0.0 0.00 0.00 0.00 97 1008.9
20260905115806 62 257 0.0 0.0 0.00 0.00 0.00 98 1008.9
20260905115306 61 188 0.0 0.0 0.00 0.00 0.00 98 1008.6
20260905114800 61 180 0.0 0.0 0.00 0.00 0.00 99 1008.7
20260905114259 60 186 0.0 0.0 0.00 0.00 0.00 99 1008.5
20260905113758 60 179 0.0 0.0 0.00 0.00 0.00 99 1008.5
20260905113254 60 180 0.0 0.0 0.00 0.00 0.00 99 1008.4
20260905112749 59 180 0.0 0.0 0.00 0.00 0.00 99 1008.3
20260905112244 60 181 0.0 0.0 0.00 0.00 0.00 99 1008.2
20260905111739 60 180 0.0 0.0 0.00 0.00 0.00 99 1008.0
20260905111233 60 178 0.0 0.0 0.00 0.00 0.00 99 1008.2
20260905110732 60 190 0.0 0.0 0.00 0.00 0.00 99 1008.1
20260905110227 60 210 0.0 0.0 0.00 0.00 0.00 99 1007.9
20260905105722 59 206 0.0 0.0 0.00 0.00 0.00 99 1007.9
20260905105221 59 210 0.0 0.0 0.00 0.00 0.00 99 1008.0
20260905104716 59 181 0.0 0.0 0.00 0.00 0.00 99 1008.0
20260905104212 59 178 0.0 0.0 0.00 0.00 0.00 99 1008.1
20260905103707 60 170 0.0 0.0 0.00 0.00 0.00 99 1007.6
20260905103203 60 185 0.0 0.0 0.00 0.00 0.00 99 1007.6
20260905102658 60 183 0.0 0.0 0.00 0.00 0.00 99 1007.8
20260905102155 60 190 0.0 0.0 0.00 0.00 0.00 99 1007.7
20260905101653 60 223 0.0 0.0 0.00 0.00 0.00 99 1007.4
20260905101152 60 184 0.0 0.0 0.00 0.00 0.00 99 1007.7
20260905100648 60 207 0.0 0.0 0.00 0.00 0.00 99 1007.5
20260905100143 60 188 0.0 0.0 0.00 0.00 0.00 99 1007.5
20260905095642 60 178 0.0 0.0 0.00 0.00 0.00 99 1007.4
20260905095137 60 192 0.0 0.0 0.00 0.00 0.00 99 1007.5
20260905094632 60 168 0.0 0.0 0.00 0.00 0.00 99 1007.5
20260905094131 60 236 0.0 0.0 0.00 0.00 0.00 99 1007.2
20260905093626 60 191 0.0 0.0 0.00 0.00 0.00 99 1007.4
20260905093123 60 211 0.0 0.0 0.00 0.00 0.00 99 1007.4
20260905092623 60 219 0.0 0.0 0.00 0.00 0.00 99 1007.3
20260905092119 60 201 0.9 1.7 0.00 0.00 0.00 99 1007.5
20260905091618 60 208 0.0 0.0 0.00 0.00 0.00 99 1007.4
20260905091113 60 182 0.0 0.0 0.00 0.00 0.00 99 1007.3
20260905090613 60 216 1.7 1.7 0.00 0.00 0.00 99 1007.5
20260905090108 60 195 0.9 0.9 0.00 0.00 0.00 99 1007.4
20260905085606 60 207 0.0 0.0 0.00 0.00 0.00 98 1007.5
20260905085103 61 185 0.0 0.0 0.00 0.00 0.00 98 1007.6
20260905084601 61 199 0.9 0.9 0.00 0.00 0.00 98 1007.4
20260905084057 61 201 0.9 0.9 0.00 0.00 0.00 98 1007.6
20260905083551 61 182 0.0 0.0 0.00 0.00 0.00 98 1007.6
20260905083048 61 187 0.9 0.9 0.00 0.00 0.00 97 1007.5
20260905082543 61 185 1.7 1.7 0.00 0.00 0.00 97 1007.6
20260905082039 61 196 1.7 1.7 0.00 0.00 0.00 97 1007.6
20260905081538 61 201 0.9 0.9 0.00 0.00 0.00 97 1007.6
20260905081033 61 186 0.9 0.9 0.00 0.00 0.00 97 1007.4
20260905080532 62 194 0.9 0.9 0.00 0.00 0.00 97 1007.8
20260905080028 61 200 0.9 0.9 0.00 0.00 0.00 97 1007.6
20260905075521 62 182 0.0 0.9 0.00 0.00 0.00 97 1007.7
20260905075020 62 182 0.0 0.9 0.00 0.00 0.00 97 1007.6
20260905074510 62 189 0.0 0.0 0.00 0.00 0.00 97 1007.7
20260905074005 62 185 0.0 0.9 0.00 0.00 0.00 96 1007.5
20260905073500 62 182 0.9 0.9 0.00 0.00 0.00 95 1007.8
20260905072955 63 203 0.9 0.9 0.00 0.00 0.00 94 1007.7
20260905072450 63 208 0.9 0.9 0.00 0.00 0.00 94 1007.7
20260905071946 63 194 0.9 0.9 0.00 0.00 0.00 94 1007.7
20260905071443 63 208 0.9 0.9 0.00 0.00 0.00 94 1007.9
20260905070942 63 208 0.9 0.9 0.00 0.00 0.00 94 1007.9
20260905070438 63 199 0.9 0.9 0.00 0.00 0.00 93 1007.9
20260905065938 63 193 0.9 0.9 0.00 0.00 0.00 94 1007.8
20260905065436 63 234 1.7 1.7 0.00 0.00 0.00 93 1008.0
20260905064931 63 202 0.9 0.9 0.00 0.00 0.00 93 1007.9
20260905064426 63 210 0.9 0.9 0.00 0.00 0.00 94 1008.1
20260905063921 63 188 0.9 0.9 0.00 0.00 0.00 94 1008.1
20260905063415 63 225 0.9 1.7 0.00 0.00 0.00 94 1008.0
20260905062912 63 206 0.9 0.9 0.00 0.00 0.00 93 1008.1
20260905062406 63 204 0.9 1.7 0.00 0.00 0.00 93 1008.1
20260905061901 63 213 0.9 0.9 0.00 0.00 0.00 93 1008.1
20260905061401 63 197 0.9 0.9 0.00 0.00 0.00 93 1008.1
20260905060855 62 182 0.0 0.9 0.00 0.00 0.00 93 1008.2
20260905060352 62 190 0.9 0.9 0.00 0.00 0.00 93 1008.3
20260905055851 63 190 0.9 0.9 0.00 0.00 0.00 93 1008.1
20260905055346 62 213 0.9 0.9 0.00 0.00 0.00 92 1008.3
20260905054845 62 209 0.9 1.7 0.00 0.00 0.00 93 1008.2
20260905054342 62 186 0.9 1.7 0.00 0.00 0.00 93 1008.2
20260905053841 62 179 0.0 0.0 0.00 0.00 0.00 93 1008.4
20260905053336 62 182 0.0 0.0 0.00 0.00 0.00 93 1008.4
20260905052831 62 182 0.0 0.0 0.00 0.00 0.00 93 1008.3
20260905052331 63 184 0.0 0.0 0.00 0.00 0.00 93 1008.5
20260905051830 62 206 0.9 0.9 0.00 0.00 0.00 92 1008.5
20260905051326 63 183 0.9 0.9 0.00 0.00 0.00 92 1008.4
20260905050823 63 186 0.9 0.9 0.00 0.00 0.00 92 1008.3
20260905050319 63 180 0.9 1.7 0.00 0.00 0.00 91 1008.4
20260905045814 63 191 1.7 1.7 0.00 0.00 0.00 91 1008.7
20260905045309 63 205 0.0 0.9 0.00 0.00 0.00 91 1008.7
20260905044805 63 224 0.9 1.7 0.00 0.00 0.00 90 1008.4
20260905044300 64 205 0.9 0.9 0.00 0.00 0.00 89 1008.5
20260905043758 64 228 0.9 0.9 0.00 0.00 0.00 89 1008.6
20260905043253 64 188 0.9 0.9 0.00 0.00 0.00 88 1008.7
20260905042753 64 245 1.7 1.7 0.00 0.00 0.00 88 1008.6
20260905042253 64 253 1.7 1.7 0.00 0.00 0.00 88 1008.7
20260905041748 64 199 0.9 0.9 0.00 0.00 0.00 89 1008.7
20260905041243 64 197 1.7 1.7 0.00 0.00 0.00 88 1008.6
20260905040738 64 245 1.7 1.7 0.00 0.00 0.00 87 1008.7
20260905040237 64 267 1.7 2.6 0.00 0.00 0.00 88 1008.7
20260905035732 64 223 1.7 1.7 0.00 0.00 0.00 88 1008.7
20260905035228 64 220 2.6 2.6 0.00 0.00 0.00 88 1008.6
20260905034724 64 235 1.7 1.7 0.00 0.00 0.00 88 1008.6
20260905034219 64 209 1.7 1.7 0.00 0.00 0.00 88 1008.7
20260905033718 64 230 1.7 1.7 0.00 0.00 0.00 88 1008.8
20260905033213 64 191 0.9 0.9 0.00 0.00 0.00 88 1008.6
20260905032712 64 207 0.9 0.9 0.00 0.00 0.00 87 1008.6
20260905032208 64 195 0.9 0.9 0.00 0.00 0.00 88 1008.5
20260905031704 64 223 0.9 1.7 0.00 0.00 0.00 88 1008.6
20260905031159 64 199 0.9 0.9 0.00 0.00 0.00 87 1008.5
20260905030654 64 187 1.7 1.7 0.00 0.00 0.00 87 1008.5
20260905030149 64 224 1.7 1.7 0.00 0.00 0.00 86 1008.5
20260905025643 64 217 2.6 2.6 0.00 0.00 0.00 85 1008.7
20260905025139 64 226 1.7 1.7 0.00 0.00 0.00 85 1008.6
20260905024635 64 227 0.9 1.7 0.00 0.00 0.00 85 1008.8
20260905024131 64 217 1.7 1.7 0.00 0.00 0.00 85 1008.6
20260905023626 64 236 1.7 1.7 0.00 0.00 0.00 85 1008.6
20260905023125 64 251 1.7 1.7 0.00 0.00 0.00 85 1008.7
20260905022624 64 189 1.7 1.7 0.00 0.00 0.00 85 1008.7
20260905022120 64 234 0.9 0.9 0.00 0.00 0.00 85 1008.6
20260905021614 64 210 1.7 1.7 0.00 0.00 0.00 84 1008.5
20260905021110 64 240 1.7 1.7 0.00 0.00 0.00 84 1008.8
20260905020609 64 221 1.7 1.7 0.00 0.00 0.00 84 1008.7
20260905020104 64 217 1.7 1.7 0.00 0.00 0.00 84 1008.6
20260905015603 64 205 0.9 0.9 0.00 0.00 0.00 84 1008.9
20260905015057 64 199 0.9 1.7 0.00 0.00 0.00 83 1008.8
20260905014551 64 202 0.9 1.7 0.00 0.00 0.00 83 1009.0
20260905014048 65 191 0.9 0.9 0.00 0.00 0.00 83 1008.9
20260905013544 65 203 0.9 1.7 0.00 0.00 0.00 82 1009.1
20260905013039 65 198 0.9 1.7 0.00 0.00 0.00 81 1009.0
20260905012538 65 186 0.9 0.9 0.00 0.00 0.00 81 1009.0
20260905012036 65 196 0.9 1.7 0.00 0.00 0.00 81 1008.7
20260905011532 65 187 0.9 0.9 0.00 0.00 0.00 81 1008.7
20260905011026 65 209 0.9 0.9 0.00 0.00 0.00 81 1008.8
20260905010521 65 201 0.9 0.9 0.00 0.00 0.00 80 1008.6
20260905010018 65 206 0.9 0.9 0.00 0.00 0.00 79 1008.9
20260905005513 66 194 0.9 0.9 0.00 0.00 0.00 79 1009.0
20260905005009 66 198 0.9 0.9 0.00 0.00 0.00 79 1008.9
20260905004508 66 209 1.7 1.7 0.00 0.00 0.00 78 1008.9
20260905004004 66 198 1.7 1.7 0.00 0.00 0.00 77 1009.1
20260905003500 66 230 1.7 1.7 0.00 0.00 0.00 78 1008.8
20260905002954 66 240 1.7 1.7 0.00 0.00 0.00 77 1008.8
20260905002450 66 185 1.7 1.7 0.00 0.00 0.00 77 1008.6
20260905001943 66 218 1.7 1.7 0.00 0.00 0.00 78 1008.7
20260905001439 66 198 0.9 1.7 0.00 0.00 0.00 79 1008.8
20260905000933 66 196 0.0 0.9 0.00 0.00 0.00 79 1008.6
20260905000431 66 187 0.0 0.9 0.00 0.00 0.00 80 1008.6
20260904235924 66 194 0.9 0.9 0.00 0.00 0.00 79 1008.4
20260904235420 66 189 0.9 0.9 0.00 0.00 0.00 78 1008.6
20260904234920 66 187 0.0 0.0 0.00 0.00 0.00 79 1008.4
20260904234414 67 202 0.0 0.9 0.00 0.00 0.00 78 1008.5
20260904233909 67 188 0.0 0.0 0.00 0.00 0.00 78 1008.2
20260904233405 67 216 0.9 1.7 0.00 0.00 0.00 76 1008.4
20260904232902 68 197 0.9 0.9 0.00 0.00 0.00 76 1008.3
20260904232358 68 201 0.9 0.9 0.00 0.00 0.00 75 1008.4
20260904231853 68 219 1.7 1.7 0.00 0.00 0.00 75 1008.2
20260904231348 69 191 0.9 0.9 0.00 0.00 0.00 75 1008.3
20260904230844 69 211 0.9 1.7 0.00 0.00 0.00 74 1008.3
20260904230342 69 199 1.7 1.7 0.00 0.00 0.00 75 1008.4
20260904225838 69 243 0.9 1.7 0.00 0.00 0.00 76 1008.6
20260904225335 69 196 0.9 0.9 0.00 0.00 0.00 74 1008.3
20260904224830 70 218 0.9 0.9 0.00 0.00 0.00 73 1008.1
20260904224326 70 199 1.7 1.7 0.00 0.00 0.00 73 1008.2
20260904223825 71 189 1.7 1.7 0.00 0.00 0.00 72 1008.4
20260904223319 71 155 0.9 0.9 0.00 0.00 0.00 72 1008.3
20260904222815 71 245 0.9 2.6 0.00 0.00 0.00 75 1008.0
20260904222310 71 200 0.9 1.7 0.00 0.00 0.00 72 1007.9
20260904221805 72 209 1.7 2.6 0.00 0.00 0.00 71 1007.9
20260904221305 72 198 2.6 2.6 0.00 0.00 0.00 72 1008.0
20260904220800 72 176 0.9 0.9 0.00 0.00 0.00 73 1008.1
20260904220259 72 183 0.9 1.7 0.00 0.00 0.00 71 1008.2
20260904215754 72 186 0.9 0.9 0.00 0.00 0.00 74 1007.9
20260904215250 72 188 0.0 0.9 0.00 0.00 0.00 71 1007.9
20260904214745 73 294 3.5 4.3 0.00 0.00 0.00 68 1007.8
20260904214241 73 208 1.7 1.7 0.00 0.00 0.00 69 1007.9
20260904213739 73 192 0.9 1.7 0.00 0.00 0.00 71 1007.9
20260904213235 73 86 3.5 4.3 0.00 0.00 0.00 68 1008.0
20260904212731 74 164 1.7 2.6 0.00 0.00 0.00 67 1007.7
20260904212225 74 246 2.6 2.6 0.00 0.00 0.00 67 1008.0
20260904211725 73 207 1.7 1.7 0.00 0.00 0.00 67 1007.9
20260904211220 73 178 1.7 2.6 0.00 0.00 0.00 66 1007.8
20260904210715 73 175 0.9 0.9 0.00 0.00 0.00 68 1007.8
20260904210210 74 261 2.6 2.6 0.00 0.00 0.00 67 1008.0
20260904205706 74 244 0.9 1.7 0.00 0.00 0.00 71 1008.0
20260904205202 74 283 0.0 0.9 0.00 0.00 0.00 72 1007.9
20260904204658 74 201 1.7 1.7 0.00 0.00 0.00 70 1008.3
20260904204154 74 178 0.9 0.9 0.00 0.00 0.00 71 1007.9
20260904203649 75 213 3.5 4.3 0.00 0.00 0.00 67 1008.2
20260904203146 75 200 0.9 0.9 0.00 0.00 0.00 72 1008.1
20260904202641 75 308 0.9 2.6 0.00 0.00 0.00 74 1008.2
20260904202137 74 185 1.7 2.6 0.00 0.00 0.00 71 1008.3
20260904201632 75 204 0.9 0.9 0.00 0.00 0.00 71 1008.0
20260904201126 75 179 0.9 1.7 0.00 0.00 0.00 70 1008.0
20260904200621 75 113 1.7 1.7 0.00 0.00 0.00 70 1007.9
20260904200116 76 186 1.7 1.7 0.00 0.00 0.00 69 1007.8
20260904195614 76 186 0.0 0.0 0.00 0.00 0.00 73 1008.1
20260904195113 77 317 1.7 1.7 0.00 0.00 0.00 68 1008.2
20260904194608 76 203 0.0 0.9 0.00 0.00 0.00 70 1008.1
20260904194103 76 279 3.5 5.2 0.00 0.00 0.00 70 1008.0
20260904193557 77 175 1.7 1.7 0.00 0.00 0.00 71 1008.3
20260904193054 75 185 0.9 0.9 0.00 0.00 0.00 70 1008.3
20260904192554 78 187 0.0 0.9 0.00 0.00 0.00 67 1008.4
20260904192049 78 198 0.9 0.9 0.00 0.00 0.00 67 1008.0
20260904191546 76 185 0.0 0.0 0.00 0.00 0.00 75 1008.3
20260904191042 75 182 0.0 0.0 0.00 0.00 0.00 78 1008.3
20260904190537 75 175 0.9 0.9 0.00 0.00 0.00 73 1008.4
20260904190034 76 180 1.7 1.7 0.00 0.00 0.00 72 1008.3
20260904185530 76 186 0.0 0.0 0.00 0.00 0.00 72 1008.3
20260904185024 75 205 0.9 0.9 0.00 0.00 0.00 72 1008.3
20260904184519 74 196 0.9 0.9 0.00 0.00 0.00 76 1008.6
20260904184014 77 240 1.7 1.7 0.00 0.00 0.00 70 1008.6
20260904183509 76 190 0.0 0.0 0.00 0.00 0.00 74 1008.6
20260904183004 76 249 0.9 1.7 0.00 0.00 0.00 74 1008.7
20260904182500 77 171 0.9 1.7 0.00 0.00 0.00 70 1008.6
20260904181959 77 185 0.9 0.9 0.00 0.00 0.00 71 1008.8
20260904181455 77 252 0.9 1.7 0.00 0.00 0.00 70 1008.7
20260904180950 77 236 1.7 2.6 0.00 0.00 0.00 67 1008.5
20260904180444 77 192 0.0 0.9 0.00 0.00 0.00 73 1008.9
20260904175944 78 212 1.7 1.7 0.00 0.00 0.00 69 1008.7
20260904175443 76 183 0.9 0.9 0.00 0.00 0.00 70 1008.8
20260904174938 74 186 0.9 0.9 0.00 0.00 0.00 75 1009.0
20260904174433 76 196 2.6 2.6 0.00 0.00 0.00 72 1008.9
20260904173929 77 234 0.9 1.7 0.00 0.00 0.00 67 1009.0
20260904173419 76 177 0.0 0.9 0.00 0.00 0.00 69 1009.1
20260904172914 74 179 0.9 1.7 0.00 0.00 0.00 74 1009.1
20260904172414 77 260 1.7 1.7 0.00 0.00 0.00 67 1009.0
20260904171909 77 150 0.9 0.9 0.00 0.00 0.00 72 1009.0
20260904171404 76 233 0.0 0.9 0.00 0.00 0.00 71 1008.7
20260904170901 77 196 1.7 1.7 0.00 0.00 0.00 72 1008.8
20260904170355 76 216 0.9 1.7 0.00 0.00 0.00 68 1008.8
20260904165850 77 254 0.9 1.7 0.00 0.00 0.00 70 1008.8
20260904165344 77 149 0.9 0.9 0.00 0.00 0.00 68 1008.8